Regional Weather Roundup
Issued by NWS Sterling, VA

Home | Current Version | Previous Version | Graphics & Text | Print | Product List | Glossary On
Versions: 1 2 3 4 5 6 7 8 9 10 11 12 13 14 15 16 17 18 19 20 21 22 23 24 25 26 27 28 29 30 31 32 33 34 35 36 37 38 39 40 41 42 43 44 45 46 47 48 49 50
113
ASUS41 KLWX 281211
RWRLWX

REGIONAL WEATHER ROUNDUP
NATIONAL WEATHER SERVICE BALTIMORE MD/WASHINGTON DC
800 AM EDT SUN MAY 28 2017

Note: "FAIR" indicates few or no clouds below 12,000 feet
with no significant weather and/or obstructions to visibility.
 TC=TEMPERATURE CELSIUS

 * =Non NWS site. Station does not report precipitation (e.g. rain,
    snow, etc.), thunder, or fog.

DCZ001-MDZ009-015-VAZ040>042-051-053>054-281300-
WASHINGTON METRO

CITY           SKY/WX    TMP DP  RH WIND       PRES   REMARKS
WASHINGTON NAT MOSUNNY   65  61  87 NE7       29.89R
DULLES         PTSUNNY   63  60  90 CALM      29.88S FOG
ANDREWS AFB    MOSUNNY   64  58  82 NE5       29.87R
FT BELVOIR     SUNNY     65  60  82 CALM      29.88R
QUANTICO       SUNNY     66  62  87 E8        29.88R
COLLEGE PARK*  MOSUNNY   62  59  88 CALM      29.89R
LEESBURG*      CLOUDY    61  61 100 CALM      29.90S FOG
MANASSAS*      SUNNY     65  61  87 N6        29.88F
GAITHERSBURG*  PTSUNNY   61  59  93 CALM      29.90R

$$

MDZ006>007-011-014-281300-
BALTIMORE METRO

CITY           SKY/WX    TMP DP  RH WIND       PRES   REMARKS
BWI AIRPORT    MOSUNNY   65  61  87 NE6       29.89R
MD SCIENCE CTR   N/A     67  58  72 MISG      29.92R
MARTIN STATE   MOSUNNY   64  64 100 CALM      29.91S
ANNAPOLIS      SUNNY     67  60  78 CALM      29.88S
FORT MEADE*    MOSUNNY   63  59  88 NE6       29.91S

$$

MDZ012-015-019>023-281300-
MARYLAND EASTERN SHORE

CITY           SKY/WX    TMP DP  RH WIND       PRES   REMARKS
OCEAN CITY     SUNNY     65  60  84 E7        29.90R
SALISBURY      SUNNY     65  58  78 E9        29.88R
BAY BRIDGE AP* MOSUNNY   64  59  82 NE6       29.89R
CAMBRIDGE*     SUNNY     64  57  77 E7        29.88R
EASTON*        SUNNY     64  57  77 E5        29.92S

$$

MDZ017>025-281300-
SOUTHERN MARYLAND

CITY           SKY/WX    TMP DP  RH WIND       PRES   REMARKS
PATUXENT RIVER MOSUNNY   66  61  84 E9        29.87R
ST INIGOES     SUNNY     67  61  81 E8        29.86R
LEONARDTOWN*   SUNNY     64  61  88 E5        29.88S

$$

MDZ003>005-281300-
NORTH CENTRAL MARYLAND

CITY           SKY/WX    TMP DP  RH WIND       PRES   REMARKS
FREDERICK*     CLOUDY    63  63 100 VRB5      29.92S FOG
HAGERSTOWN APT SUNNY     62  61  96 CALM      29.88F FOG
WESTMINSTER*   MOSUNNY   63  63 100 E3        29.89F

$$

MDZ501>502-281300-
WESTERN MARYLAND

CITY           SKY/WX    TMP DP  RH WIND       PRES   REMARKS
OAKLAND*       FOG       59  59 100 S6        29.90S VSB 1/2
CUMBERLAND*    CLOUDY    61  61 100 CALM      29.91S

$$

VAZ025>031-281300-
SHENANDOAH VALLEY

CITY           SKY/WX    TMP DP  RH WIND       PRES   REMARKS
WINCHESTER*    CLOUDY    59  59 100 NE3       29.87F FOG
FRONT ROYAL*   CLOUDY    61  61 100 CALM      29.86F VSB 1/2
LURAY*         CLOUDY    63  63 100 CALM      29.86F FOG
NEW MARKET*    CLOUDY    64  61  93 E3        29.86F
STAUNTON*      CLOUDY    62  61  96 CALM      29.90F FOG
WAYNESBORO*    CLOUDY    63  63 100 CALM      29.88F

$$

WVZ021-048>050-054>055-281300-
EASTERN WEST VIRGINIA PANHANDLE

CITY           SKY/WX    TMP DP  RH WIND       PRES   REMARKS
MARTINSBURG    HVY RAIN  59  58  96 N3        29.87F VSB 1/2
PETERSBURG*    CLOUDY    65  64  97 CALM      29.86S FOG

$$

VAZ036>039-050-281300-
CENTRAL FOOTHILLS

CITY           SKY/WX    TMP DP  RH WIND       PRES   REMARKS
CHARLOTTESVILL PTSUNNY   64  62  93 CALM      29.87R FOG
CULPEPER*      CLOUDY    64  63  99 N3        29.88F FOG
ORANGE*        CLOUDY    61  61 100 CALM      29.88S FOG
GORDONSVILLE*  CLOUDY    63  63 100 NE3       29.87S FOG
WARRENTON*     CLOUDY    64  60  86 CALM      29.87S FOG

$$

VAZ055>057-281300-
NORTH AND CENTRAL PIEDMONT

CITY           SKY/WX    TMP DP  RH WIND       PRES   REMARKS
FREDERICKSBRG* CLOUDY    64  64 100 CALM      29.87S
STAFFORD*      PTSUNNY   63  63  99 CALM      29.92S

$$

NCZ024-NYZ072-PAZ021-071-VAZ022-071-281300-
OTHER REGIONAL OBSERVATIONS

CITY           SKY/WX    TMP DP  RH WIND       PRES   REMARKS
NEW YORK CITY  CLOUDY    61  57  87 VRB5      29.97R FOG
PHILADELPHIA   PTSUNNY   67  61  81 CALM      29.93R
PITTSBURGH     FOG       59  59 100 SE7       29.81F VSB 1/4
ROANOKE        CLOUDY    67  65  93 W3        29.87F
RICHMOND       CLOUDY    66  65  96 CALM      29.87R FOG
RALEIGH        CLOUDY    70  67  90 S6        29.84R

$$

ANZ530>537-281300-
MARINE OBSERVATIONS

STATION/POSITION TIME  TEMP    WIND        PRES
                       AIR SEA DIR/SP/G
                 (UTC) (F)     (DEG/KT/KT) (MB)
THOMAS PT LIGHT  1200   64 65   60/  6/  6   N/A
BALT KEY BRIDGE  1148   64      40/  5/  6 1012.4R
COVE POINT       1148   65     140/  6/  7 1012.5R
LEWISETTA        1148   67 70   90/ 12/ 13 1011.1R
SOLOMONS ISLAND  1142   66 67   80/  9/ 11   N/A
PINEY POINT      1148          120/ 11/ 13   N/A

$$





USA.gov is the U.S. government's official web portal to all federal, state and local government web resources and services.